NOAA 16 DEB, 41149

Orbit data source: Space-Track

NOAA 16 DEB, 41149 is space debris in SSO originally from a launch on Thu, 21 Sep 2000 UTC launched from the Air Force Western Test Range (AFWTR). Debris objects in space refer to the collection of defunct objects orbiting the Earth. Examples of debris include non-operational satellites, rocket bodies, and fragments generated from explosions, collisions, or faulty payload assembly.

Loading next visibility...
Identifier
41149, 2000-055CG
Orbit
SSO
Country
Flag of USUS
Related business
Manufacturer
Unknown
Mission
Spacecraft
Bus & Motor
Unknown
Mass
Unknown
Launch date (UTC)
2000-09-21 (25 years ago)
Launch vehicle
Unknown
Launch site
Air Force Western Test Range (AFWTR)
Object type
Payload
Rocket body
Debris
Shape & HBR
Unknown
Radar Cross Section
Small (<0.1 m²)

Expand to show TLE details & history
Last TLE update: 2 days ago

TLE from 2 days ago
0 NOAA 16 DEB
1 41149U 00055CG  25259.12091396  .00019577  00000-0  32997-2 0  9994
2 41149  98.9352 140.9121 0043877  64.0034 296.5678 14.68897429513292
Epoch: 2025-09-16T02:54Z
TLE epoch observation values (Epoch: 2025-09-16T02:54:06.966Z)
Latitude
-0.00001°
Longitude
102.06731°
Altitude
653.849 km
Speed
7.538 km/s
True Right ascension
09h 23m 38s
True Declination
0° 00' 00"
Sunlit
Object was in daylight at epoch
Visualization orbit readout
Latitude
Unknown
Longitude
Unknown
Altitude
Unknown
Speed
Unknown
Apparent Right ascension
Unknown
Apparent Declination
Unknown
Sunlit
N/A
Visualization observer readout
Local Sidereal Time
15:01:32
Azimuth
Unknown
Elevation
Unknown
Doppler factor
Unknown
Orbital elements
Apogee altitude
692.583 km
Perigee altitude
630.806 km
Semi-major axis
7,039.832 km
Eccentricity
0.00439
Inclination
98.9352°
RAAN
140.9121°
Arg. of periapsis
64.0034°
True anomaly
296.117°
Mean anomaly
296.5678°
Eccentric anomaly
296.34251°
Mean motion
3.67451 °/min
Orbital period
97.97 mins
BSTAR
0.0032997
Loading maneuver chart data...
Computing Atmospheric mass density...
Loading historical data...
Loading historical data...
Loading historical data...
Loading historical data...
Loading historical data...
Loading historical data...
Loading historical data...

Documentation

Showing up to 5 results
|